Weather History for Dillon, MT

Change the Weather History Date:

Saturday, April 6, 2013

  Actual Average Record
Temperature  
Mean Temperature 45 °F 39 °F  
Max Temperature 56 °F 51 °F 71 °F (1989)
Min Temperature 33 °F 27 °F 6 °F (1955)
Degree Days  
Heating Degree Days 20    
Month to date heating degree days 106  
Since 1 July heating degree days 6437  
Cooling Degree Days 0    
Month to date cooling degree days 0  
Year to date cooling degree days 0  
Moisture  
Dew Point 27 °F    
Average Humidity 57    
Maximum Humidity 82    
Minimum Humidity 32    
Precipitation  
Precipitation T in 0.03 in 0.63 in (1984)
Month to date precipitation 0.01 0.18  
Year to date precipitation 0.41 1.26  
Snow  
Snow 0.00 in - - ()
Snow Depth 0.00 in    
Sea Level Pressure  
Sea Level Pressure 29.83 in    
Wind  
Wind Speed 12 mph (SSW)    
Max Wind Speed 38 mph    
Max Gust Speed 46 mph    
Visibility 10 miles    
Events      
T = Trace of Precipitation, MM = Missing Value Source: NWS Daily Summary

Daily Weather History Graph

Daily Weather History Graph

Search for Another Location

Airport:

Trip Planner

Search our weather history database for the weather conditions in past years. The results will help you decide how hot, cold, wet, or windy it might be!

Date:

Astronomy

Apr. 06, 2013 Rise Set
Actual Time 7:00 AM MDT 8:05 PM MDT
Civil Twilight 6:30 AM MDT 8:35 PM MDT
Nautical Twilight 5:54 AM MDT 9:11 PM MDT
Astronomical Twilight 5:16 AM MDT 9:49 PM MDT
Moon 4:56 AM MDT (4/6) 4:29 PM MDT (4/6)
Length of Visible Light 14h 04m
Length of Day
13h 04m
Waning Crescent, 14% of the Moon is Illuminated
Apr 6
Waning Crescent
Apr 10
New
Apr 18
First Quarter
Apr 25
Full
May 2
Last Quarter

Hourly Weather History & Observations

Time (MDT) Temp. Windchill Dew Point Humidity Pressure Visibility Wind Dir Wind Speed Gust Speed Precip Events Conditions
12:53 AM 39.0 °F 34.8 °F 28.0 °F 65% 29.88 in 10.0 mi South 5.8 mph - N/A   Mostly Cloudy
1:53 AM 37.0 °F 32.4 °F 26.1 °F 65% 29.88 in 10.0 mi SE 5.8 mph - N/A   Partly Cloudy
2:53 AM 39.0 °F - 25.0 °F 57% 29.85 in 10.0 mi Calm Calm - N/A   Mostly Cloudy
3:53 AM 39.9 °F 35.8 °F 25.0 °F 55% 29.85 in 10.0 mi South 5.8 mph - N/A   Overcast
4:53 AM 37.9 °F 33.5 °F 24.1 °F 57% 29.84 in 10.0 mi South 5.8 mph - N/A   Mostly Cloudy
5:53 AM 36.0 °F 29.0 °F 24.1 °F 62% 29.84 in 10.0 mi South 9.2 mph - N/A   Scattered Clouds
6:53 AM 37.9 °F 34.4 °F 23.0 °F 55% 29.85 in 10.0 mi South 4.6 mph - N/A   Clear
7:53 AM 37.9 °F 34.4 °F 24.1 °F 57% 29.85 in 10.0 mi SSW 4.6 mph - N/A   Clear
8:53 AM 41.0 °F 35.8 °F 26.1 °F 55% 29.86 in 10.0 mi SSW 8.1 mph - N/A   Overcast
9:53 AM 46.0 °F 39.9 °F 26.1 °F 46% 29.83 in 10.0 mi SW 13.8 mph - N/A   Mostly Cloudy
10:53 AM 48.0 °F - 28.0 °F 46% 29.83 in 10.0 mi SW 11.5 mph - N/A   Partly Cloudy
11:53 AM 52.0 °F - 27.0 °F 38% 29.81 in 10.0 mi SSW 15.0 mph - N/A   Mostly Cloudy
12:53 PM 52.0 °F - 26.1 °F 37% 29.81 in 10.0 mi SW 21.9 mph 29.9 mph N/A   Scattered Clouds
1:53 PM 50.0 °F - 28.9 °F 44% 29.81 in 10.0 mi SW 19.6 mph - N/A   Clear
2:53 PM 54.0 °F - 28.0 °F 37% 29.77 in 10.0 mi SSW 21.9 mph - N/A   Clear
3:53 PM 54.0 °F - 24.1 °F 31% 29.75 in 10.0 mi SSW 16.1 mph 25.3 mph N/A   Partly Cloudy
4:53 PM 52.0 °F - 28.0 °F 40% 29.77 in 10.0 mi WSW 23.0 mph 31.1 mph N/A   Mostly Cloudy
5:53 PM 52.0 °F - 26.1 °F 37% 29.79 in 10.0 mi West 26.5 mph 35.7 mph N/A   Mostly Cloudy
6:07 PM 50.0 °F - 30.2 °F 47% 29.83 in 10.0 mi WNW 23.0 mph - N/A   Overcast
6:53 PM 46.9 °F - 30.0 °F 52% 29.83 in 10.0 mi NNW 8.1 mph - N/A   Overcast
7:53 PM 46.0 °F 41.4 °F 28.0 °F 50% 29.83 in 10.0 mi WSW 9.2 mph - N/A   Overcast
8:53 PM 39.9 °F 33.9 °F 33.1 °F 77% 29.84 in 10.0 mi South 9.2 mph - 0.00 in   Mostly Cloudy
9:53 PM 37.9 °F 30.0 °F 32.0 °F 79% 29.83 in 10.0 mi SSW 12.7 mph - N/A   Overcast
10:53 PM 37.0 °F 31.6 °F 30.9 °F 79% 29.83 in 10.0 mi South 6.9 mph - N/A   Mostly Cloudy
11:53 PM 37.0 °F 29.3 °F 28.9 °F 73% 29.81 in 10.0 mi SSW 11.5 mph - N/A   Scattered Clouds